Regional Weather Roundup
Issued by NWS Cleveland, OH

Home | Current Version | Previous Version | Graphics & Text | Print | Product List | Glossary On
Versions: 1 2 3 4 5 6 7 8 9 10 11 12 13 14 15 16 17 18 19 20 21 22 23 24 25 26 27 28 29 30 31 32 33 34 35 36 37 38 39 40 41 42 43 44 45 46 47 48 49 50
000
ASUS41 KCLE 050510
RWRCLE
OHIO REGIONAL WEATHER ROUNDUP
NATIONAL WEATHER SERVICE CLEVELAND, OH
1200 AM EST THU MAR 05 2015

NOTE: "FAIR" INDICATES FEW OR NO CLOUDS BELOW 12,000 FEET WITH NO
SIGNIFICANT WEATHER AND/OR OBSTRUCTIONS TO VISIBILITY.

OHZ001>008-015>018-024>027-034-035-043-044-050600-
   NORTHWEST OHIO

CITY           SKY/WX    TMP DP  RH WIND       PRES   REMARKS
DEFIANCE       CLOUDY    19   4  51 N9        30.26F WCI   8
FINDLAY        CLOUDY    19   4  51 NW18G24   30.22F WCI   4
TOLEDO EXPRESS CLOUDY    17   1  49 NW15G25   30.26R WCI   2
TOLEDO EXEC    CLOUDY    19   3  49 NW15      30.27R WCI   5
LIMA           CLOUDY    20   7  57 N13G21    30.23R WCI   7
$$

OHZ009>014-019>023-028>033-038-089-050600-
   NORTHEAST OHIO

CITY           SKY/WX    TMP DP  RH WIND       PRES   REMARKS
CLE-HOPKINS    CLOUDY    21   9  59 NW21      30.22R WCI   5
CLE-LAKEFRONT  CLOUDY    22  11  62 NW24      30.21R WCI   5
CUY CO. ARPT   NOT AVBL
LORAIN-ELYRIA  CLOUDY    20   9  62 NW16G25   30.21R WCI   6
ASHTABULA      CLOUDY    23  11  60 NW15G21   30.15R WCI  10
AKRON-CANTON   CLOUDY    24   9  52 NW16      30.13R WCI  11
WOOSTER        CLOUDY    21   8  57 N18G30    30.17R WCI   6
MANSFIELD      CLOUDY    20   8  60 NW16      30.17R WCI   6
YOUNGSTOWN     CLOUDY    25  13  60 NW18G25   30.10R WCI  11
$$

OHZ042-051>053-060>062-070>072-077>081-050600-
  SOUTHWEST OHIO

CITY           SKY/WX    TMP DP  RH WIND       PRES   REMARKS
CINC-COVINGTON LGT SNOW  22  15  75 N15G22    30.22R VSB 1   WCI   9
CINC-LUNKEN    NOT AVBL
HAMILTON       CLOUDY    24  12  60 N10       30.26R WCI  14
DAYTON         CLOUDY    21   8  57 N17       30.22S WCI   7
WRIGHT-PAT AFB CLOUDY    22  11  62 N14       30.22R WCI   9
DAYTON GENERAL CLOUDY    22  13  68 N16       30.21R WCI   8
WILMINGTON     CLOUDY    23  15  71 N13       30.19R WCI  11
$$

OHZ036-037-039>041-045>050-054>059-063>069-073>076-082>088-050600-
  CENTRAL AND SOUTHEAST OHIO

CITY           SKY/WX    TMP DP  RH WIND       PRES   REMARKS
COLUMBUS       CLOUDY    23  13  65 N16G26    30.19R WCI  10
OSU AIRPORT    CLOUDY    22   8  55 N16G24    30.19R WCI   8
BOLTON FIELD   CLOUDY   N/A N/A N/A NW16      30.19R
RICKENBACK AFB CLOUDY    24  14  64 NW14      30.19R WCI  12
NEWARK         CLOUDY    25  13  60 NW14      30.17R WCI  13
MARION         CLOUDY    20   7  57 N16G24    30.21R WCI   6
LANCASTER      FLURRIES  25  12  58 NW17G23   30.18R WCI  12
ZANESVILLE     LGT SNOW  25  18  74 NW7       30.14S WCI  17
NEW PHILLY     CLOUDY    29  15  56 NW13      30.14R WCI  19
$$



USA.gov is the U.S. government's official web portal to all federal, state and local government web resources and services.